Weather History for Rochelle, IL

Change the Weather History Date:

Tuesday, June 25, 2013

  Actual Average (KRFD) Record (KRFD)
Temperature  
Mean Temperature 74 °F 72 °F  
Max Temperature 83 °F 84 °F 101 °F (1988)
Min Temperature 65 °F 61 °F 43 °F (1979)
Degree Days  
Heating Degree Days 0 0  
Month to date heating degree days 29  
Since 1 June heating degree days 29  
Since 1 July heating degree days 6567  
Cooling Degree Days 9 8  
Month to date cooling degree days 134  
Year to date cooling degree days 189  
Since 1 June cooling degree days 134  
Growing Degree Days 24 (Base 50)    
Moisture  
Dew Point 69 °F    
Average Humidity 86    
Maximum Humidity 95    
Minimum Humidity 73    
Precipitation  
Precipitation 0.04 in 0.15 in 2.55 in (1978)
Month to date precipitation 3.96  
Year to date precipitation 16.43  
Snow  
Snow 0.00 in 0.00 in 0.00 in ()
Month to date snowfall 0.0  
Since 1 June snowfall 0.0  
Since 1 July snowfall 36.7  
Snow Depth -    
Sea Level Pressure  
Sea Level Pressure 29.88 in    
Wind  
Wind Speed 6 mph (SSE)    
Max Wind Speed 20 mph    
Max Gust Speed 28 mph    
Visibility 9 miles    
Events Rain , Thunderstorm    
T = Trace of Precipitation, MM = Missing Value Source: NWS Daily Summary

Daily Weather History Graph

Daily Weather History Graph

Search for Another Location

Airport:

Trip Planner

Search our weather history database for the weather conditions in past years. The results will help you decide how hot, cold, wet, or windy it might be!

Date:

Astronomy

Jun. 25, 2013 Rise Set
Actual Time 5:22 AM CDT 8:35 PM CDT
Civil Twilight 4:48 AM CDT 9:09 PM CDT
Nautical Twilight 4:03 AM CDT 9:54 PM CDT
Astronomical Twilight 3:10 AM CDT 10:47 PM CDT
Moon 10:17 PM CDT (6/25) 8:04 AM CDT (6/25)
Length of Visible Light 16h 21m
Length of Day
15h 13m
Waning Gibbous, 92% of the Moon is Illuminated
Jun 25
Waning Gibbous
Jun 29
Last Quarter
Jul 8
New
Jul 15
First Quarter
Jul 22
Full

Hourly Weather History & Observations

Time (CDT) Temp. Heat Index Dew Point Humidity Pressure Visibility Wind Dir Wind Speed Gust Speed Precip Events Conditions
12:15 AM 65.5 °F - 63.9 °F 94% 29.94 in 10.0 mi Calm Calm - N/A   Clear
12:35 AM 66.2 °F - 63.9 °F 92% 29.93 in 10.0 mi SSE 8.1 mph - N/A   Clear
12:55 AM 66.6 °F - 63.5 °F 90% 29.93 in 10.0 mi SSE 8.1 mph - N/A   Scattered Clouds
1:15 AM 66.2 °F - 63.5 °F 91% 29.92 in 10.0 mi SSE 8.1 mph - N/A   Clear
1:35 AM 66.4 °F - 63.5 °F 90% 29.91 in 10.0 mi SSE 9.2 mph - N/A   Clear
1:55 AM 67.1 °F - 64.2 °F 90% 29.91 in 10.0 mi South 9.2 mph - N/A   Clear
2:15 AM 67.5 °F - 64.4 °F 90% 29.92 in 10.0 mi South 6.9 mph - N/A Thunderstorm Clear
2:35 AM 67.8 °F - 65.5 °F 92% 29.92 in 10.0 mi SSW 4.6 mph - N/A Thunderstorm Clear
2:55 AM 68.9 °F - 66.4 °F 92% 29.95 in 10.0 mi NNW 13.8 mph - N/A   Scattered Clouds
3:15 AM 69.6 °F - 65.3 °F 86% 29.94 in 10.0 mi East 8.1 mph - N/A   Mostly Cloudy
3:35 AM 70.0 °F - 63.9 °F 81% 29.92 in 10.0 mi NE 4.6 mph - N/A   Overcast
3:55 AM 69.3 °F - 64.9 °F 86% 29.91 in 10.0 mi ENE 6.9 mph - N/A   Mostly Cloudy
4:15 AM 68.4 °F - 64.4 °F 87% 29.91 in 10.0 mi ESE 8.1 mph - N/A   Mostly Cloudy
4:35 AM 68.0 °F - 64.8 °F 89% 29.90 in 10.0 mi East 6.9 mph - N/A   Overcast
4:55 AM 68.0 °F - 64.9 °F 90% 29.91 in 10.0 mi East 8.1 mph - N/A   Overcast
5:15 AM 68.0 °F - 64.8 °F 89% 29.90 in 10.0 mi East 5.8 mph - N/A   Mostly Cloudy
5:35 AM 68.4 °F - 65.5 °F 90% 29.91 in 10.0 mi East 4.6 mph - N/A   Mostly Cloudy
5:55 AM 68.2 °F - 65.7 °F 92% 29.91 in 10.0 mi NE 3.5 mph - N/A   Mostly Cloudy
6:15 AM 67.6 °F - 64.8 °F 90% 29.91 in 10.0 mi ENE 9.2 mph - N/A   Overcast
6:35 AM 67.6 °F - 64.6 °F 90% 29.90 in 10.0 mi East 6.9 mph - N/A   Overcast
6:55 AM 68.0 °F - 65.3 °F 91% 29.89 in 10.0 mi East 8.1 mph - N/A   Scattered Clouds
7:15 AM 69.1 °F - 66.2 °F 91% 29.90 in 10.0 mi East 5.8 mph - N/A   Clear
7:35 AM 70.0 °F - 66.4 °F 88% 29.92 in 10.0 mi East 4.6 mph - N/A   Mostly Cloudy
7:55 AM 70.2 °F - 67.3 °F 91% 29.93 in 10.0 mi ESE 3.5 mph - N/A   Scattered Clouds
8:15 AM 70.3 °F - 67.8 °F 92% 29.94 in 7.0 mi ENE 4.6 mph - N/A   Scattered Clouds
8:35 AM 70.3 °F - 68.0 °F 92% 29.96 in 7.0 mi NE 4.6 mph - N/A Thunderstorm Thunderstorm
8:55 AM 69.8 °F - 66.9 °F 91% 29.95 in 10.0 mi NNE 4.6 mph - N/A Rain , Thunderstorm Light Thunderstorms and Rain
9:15 AM 69.3 °F - 66.7 °F 92% 29.99 in 7.0 mi Calm Calm - 0.02 in Rain , Thunderstorm Thunderstorms and Rain
9:35 AM 68.9 °F - 67.1 °F 94% 29.95 in 4.0 mi East 4.6 mph - 0.04 in Rain , Thunderstorm Light Thunderstorms and Rain
9:55 AM 68.5 °F - 67.1 °F 95% 29.93 in 5.0 mi ESE 4.6 mph - 0.04 in Thunderstorm Clear
10:15 AM 69.1 °F - 67.5 °F 95% 29.92 in 5.0 mi SSE 4.6 mph - N/A   Clear
10:35 AM 70.7 °F - 68.9 °F 94% 29.92 in 7.0 mi SSE 11.5 mph - N/A   Clear
10:55 AM 72.7 °F - 68.9 °F 88% 29.91 in 10.0 mi SSE 10.4 mph - N/A   Clear
11:15 AM 74.7 °F - 69.1 °F 83% 29.91 in 10.0 mi South 6.9 mph - N/A   Clear
11:35 AM 77.4 °F - 69.8 °F 77% 29.91 in 10.0 mi South 9.2 mph - N/A   Clear
11:55 AM 77.9 °F - 68.5 °F 73% 29.90 in 10.0 mi South 12.7 mph 18.4 mph N/A   Clear
12:15 PM 78.1 °F - 69.1 °F 74% 29.88 in 10.0 mi South 16.1 mph - N/A   Clear
12:35 PM 79.3 °F - 71.6 °F 77% 29.86 in 10.0 mi South 18.4 mph 26.5 mph N/A   Clear
12:55 PM 79.9 °F - 71.6 °F 76% 29.85 in 10.0 mi SSW 19.6 mph 26.5 mph N/A   Clear
1:15 PM 79.7 °F - 71.8 °F 77% 29.86 in 10.0 mi SSW 16.1 mph 27.6 mph N/A   Clear
1:35 PM 79.9 °F - 72.1 °F 77% 29.86 in 10.0 mi SSW 13.8 mph 24.2 mph N/A   Clear
1:55 PM 80.1 °F 84.1 °F 72.7 °F 78% 29.87 in 10.0 mi SSW 10.4 mph - N/A   Clear
2:15 PM 80.6 °F 85.4 °F 73.4 °F 79% 29.86 in 10.0 mi SSW 6.9 mph - N/A   Scattered Clouds
2:35 PM 81.9 °F 87.3 °F 73.2 °F 75% 29.86 in 10.0 mi SSW 8.1 mph - N/A   Clear
2:55 PM 82.4 °F 88.2 °F 73.2 °F 74% 29.86 in 10.0 mi SW 9.2 mph - N/A   Clear
3:15 PM 82.4 °F 88.2 °F 73.4 °F 74% 29.85 in 10.0 mi SW 6.9 mph - N/A   Scattered Clouds
3:35 PM 83.3 °F 89.9 °F 73.8 °F 73% 29.84 in 10.0 mi SW 6.9 mph - N/A   Scattered Clouds
3:55 PM 82.6 °F 88.6 °F 73.6 °F 74% 29.84 in 10.0 mi WSW 8.1 mph - N/A   Scattered Clouds
4:15 PM 81.9 °F 87.3 °F 73.2 °F 75% 29.84 in 10.0 mi SW 8.1 mph - N/A   Mostly Cloudy
4:35 PM 81.5 °F 86.5 °F 73.0 °F 75% 29.84 in 10.0 mi SW 10.4 mph - N/A   Scattered Clouds
4:55 PM 81.5 °F 86.9 °F 73.8 °F 77% 29.84 in 10.0 mi SW 6.9 mph - N/A   Scattered Clouds
5:15 PM 81.5 °F 86.9 °F 73.6 °F 77% 29.84 in 10.0 mi WSW 4.6 mph - N/A   Scattered Clouds
5:35 PM 80.4 °F 85.1 °F 73.6 °F 80% 29.84 in 10.0 mi SW 4.6 mph - N/A   Mostly Cloudy
5:55 PM 79.7 °F - 74.5 °F 84% 29.83 in 10.0 mi SSW 3.5 mph - N/A   Mostly Cloudy
6:15 PM 79.2 °F - 75.2 °F 88% 29.83 in 7.0 mi Calm Calm - N/A   Scattered Clouds
6:35 PM 79.0 °F - 75.6 °F 89% 29.83 in 7.0 mi Calm Calm - N/A   Clear
6:55 PM 78.8 °F - 74.7 °F 87% 29.82 in 10.0 mi South 4.6 mph - N/A   Clear
7:15 PM 78.3 °F - 74.7 °F 89% 29.82 in 7.0 mi Calm Calm - N/A   Clear
7:35 PM 77.9 °F - 74.7 °F 90% 29.83 in 7.0 mi Calm Calm - N/A   Clear
7:55 PM 77.2 °F - 74.5 °F 91% 29.83 in 7.0 mi Calm Calm - N/A   Clear
8:15 PM 76.6 °F - 74.3 °F 92% 29.83 in 5.0 mi Calm Calm - N/A   Clear
8:35 PM 76.5 °F - 73.9 °F 92% 29.83 in 7.0 mi Calm Calm - N/A   Mostly Cloudy
8:55 PM 75.7 °F - 73.6 °F 93% 29.82 in 7.0 mi Calm Calm - N/A   Mostly Cloudy
9:15 PM 75.2 °F - 73.0 °F 93% 29.83 in 7.0 mi SSE 8.1 mph - N/A   Scattered Clouds
9:35 PM 74.8 °F - 72.1 °F 91% 29.84 in 7.0 mi SSE 8.1 mph - N/A   Scattered Clouds
9:55 PM 73.8 °F - 70.9 °F 91% 29.84 in 10.0 mi SSE 6.9 mph - N/A   Scattered Clouds
10:15 PM 73.4 °F - 70.0 °F 89% 29.85 in 10.0 mi SSE 4.6 mph - N/A   Clear
10:35 PM 72.5 °F - 69.4 °F 90% 29.85 in 10.0 mi SSE 6.9 mph - N/A   Clear
10:55 PM 71.8 °F - 68.9 °F 91% 29.83 in 10.0 mi Calm Calm - N/A   Clear
11:15 PM 71.2 °F - 68.9 °F 92% 29.84 in 10.0 mi SSE 3.5 mph - N/A   Scattered Clouds
11:35 PM 71.2 °F - 68.7 °F 92% 29.84 in 10.0 mi South 3.5 mph - N/A   Mostly Cloudy
11:55 PM 71.1 °F - 68.0 °F 90% 29.84 in 10.0 mi South 3.5 mph - N/A   Mostly Cloudy